星链-1502 (STARLINK-1502 )

导读

STARLINK-1502是美国太空探索技术公司星链计划中的一颗卫星,于2020年6月13日发射升空。星链计划旨在构建全球卫星互联网星座,为全球提供高速互联网接入服务。该卫星作为星链组网卫星之一,进一步扩充了星链星座规模,推动了全球卫星互联网系统的部署进程。

基本信息
目录编号:
45764
目录名称:
STARLINK-1502
国际标识:
2020-038AL
轨道中心:
EARTH
卫星名称:
星链-1502
卫星全名:
星链-1502 (STARLINK-1502 )
卫星状态:
在轨 (已飞行2191 天)
发射日期:
2020-06-13 UTC
国别 :
美国 (US)
星等 :
--
轨道信息
数据来源 国际轨道数据
星历时间: 2026-06-12T10:54:14+0800
22小时前
查看轨道信息
半长轴: 6758.504km
偏心率: 0.000559
轨道倾角: 53.044°
近地点辐角 19.073°
升交点赤经 109.695°
平近点角 341.050°
近地点: 376.588km
远地点: 384.146km
周期: 92.159分钟
每日圈数: 15.625248
详细信息
固有亮度:
5
最大亮度:
2.5
卫星平台:
Starlink V1.0
覆盖范围:
全球
运营商:
太空探索技术公司
运营商所在国:
美国
制造商(研发单位):
太空探索技术公司
制造商所在国:
美国
使用方式:
暂无
卫星简介
星链(Starlink)计划是由太空探索技术公司(SpaceX)提出的一个巨型低轨卫星互联网星座项目,计划在2019年至2024年间在太空搭建由约1.2万颗卫星组成的“星链”网络,其中1584颗将部署在地球上空550千米处的近地轨道,并从2020年开始工作。该卫星仍在工作。
2D轨道图
3D轨道图
轨道高度分析图
轨道倾角分析图
轨道综合分析图
查看轨道综合分析图